Regional Weather Roundup
Issued by NWS

Home | Current Version | Previous Version | Graphics & Text | Print | Product List | Glossary On
Versions: 1 2 3 4 5 6 7 8 9 10 11 12 13 14 15 16 17 18 19 20 21 22 23 24 25 26 27 28 29 30 31 32 33 34 35 36 37 38 39 40 41 42 43 44 45 46 47 48 49 50
000
ASUS43 KDTX 232201
RWRMI
MICHIGAN HOURLY REGIONAL WEATHER ROUNDUP
NATIONAL WEATHER SERVICE DETROIT/PONTIAC MI
600 PM EDT SAT MAY 23 2015

NOTE: "FAIR" INDICATES FEW OR NO CLOUDS BELOW 12,000 FEET WITH NO
SIGNIFICANT WEATHER AND/OR OBSTRUCTION TO VISIBILITY.

MIZ047>049-052>055-059>063-066>070-074>076-081>083-232300-
SOUTHEAST LOWER MICHIGAN

CITY           SKY/WX    TMP DP  RH WIND       PRES   REMARKS
ADRIAN         SUNNY     77  36  22 VRB6      30.29F
ALMA           SUNNY     75  33  21 W10       30.26F
ANN ARBOR      SUNNY     75  37  25 W12       30.28F
BAD AXE        SUNNY     74  32  21 W9        30.25F
CARO           SUNNY     74  37  26 S7        30.25F
DETROIT CITY   SUNNY     72  38  29 S10       30.29F
DETROIT        MOSUNNY   74  40  29 SE10      30.30F
FLINT          SUNNY     76  34  21 SW9       30.28F
GROSSE ILE     SUNNY     70  39  32 SE8       30.29F
HILLSDALE      SUNNY     77  37  24 W7        30.29F
HOWELL         SUNNY     74  31  20 W10       30.29F

CITY           SKY/WX    TMP DP  RH WIND       PRES   REMARKS
JACKSON        SUNNY     74  40  29 W9G18     30.28F
LAMBERTVILLE   SUNNY     73  41  31 E9        30.29F
LANSING        SUNNY     75  37  25 SW6       30.27F
LAPEER         FAIR      73  29  19 SW9       30.28F
MASON          SUNNY     73  35  25 W8        30.28F
MONROE         SUNNY     70  39  32 SE10      30.28F
MT. CLEMENS    MOSUNNY   70  38  31 S12       30.27F
PONTIAC        MOSUNNY   73  31  21 VRB3      30.28F
PORT HOPE        N/A     75  33  21 SW10G20   30.23F
PORT HURON     SUNNY     72  37  28 S10       30.29F
TRI CITIES     SUNNY     77  33  20 SW9G20    30.25F
MIDLAND        FAIR      76  33  20 W6        30.24F
TROY           SUNNY     75  28  17 W8        30.30F
SAGINAW HB     SUNNY     77  28  16 W8        30.25F
$$
MIZ043>046-050>051-056>058-064>065-071>073-077>080-232300-
SOUTHWEST LOWER MICHIGAN

CITY           SKY/WX    TMP DP  RH WIND       PRES   REMARKS
BATTLE CREEK   SUNNY     76  40  27 SW8       30.28F
BENTON HARBOR  SUNNY     75  43  31 W7        30.25F
BIG RAPIDS     SUNNY     74  22  14 SW12      30.25F
COLDWATER      SUNNY     76  41  28 W6        30.27F
FREMONT        FAIR      74  30  19 SW9       30.26F
HOLLAND        SUNNY     77  43  29 SW9       30.26F
GRAND RAPIDS   MOSUNNY   77  37  23 W10       30.26F
IONIA          FAIR      76  33  20 W7        30.26F
KALAMAZOO      SUNNY     78  40  25 W7        30.27F
LUDINGTON      SUNNY     71  28  20 SW10      30.26F
MARSHALL       SUNNY     76  38  25 S3        30.27F
MOUNT PLEASANT SUNNY     75  36  24 W6        30.24F
MUSKEGON       PTSUNNY   74  34  23 SW6       30.27F
SOUTH HAVEN    SUNNY     77  34  20 W5        30.25F
$$
MIZ016>042-232300-
NORTHERN LOWER MICHIGAN

CITY           SKY/WX    TMP DP  RH WIND       PRES   REMARKS
ALPENA         SUNNY     77  32  19 W13G23    30.19F
BEAVER ISLAND  SUNNY     64  23  20 SW21G28   30.20F
BELLAIRE       SUNNY     74  34  23 SW8       30.22F
CADILLAC       SUNNY     74  35  24 W10       30.24F
CHARLEVOIX     SUNNY     72  37  27 SW13G22   30.24F
FRANKFORT      SUNNY     70  13  11 SW8G21    30.24F
GAYLORD        SUNNY     72  31  22 W15G24    30.23F
HARBOR SPRINGS SUNNY     61  35  39 SW5       30.21F
HOUGHTON LAKE  SUNNY     73  36  25 W9        30.24F
MANISTEE       SUNNY     73  34  23 SW10G16   30.25F
OSCODA         SUNNY     79  34  20 W12G18    30.19F
PELLSTON       SUNNY     71  33  24 W16G29    30.20F
ROGERS CITY    SUNNY     75  36  24 W15G21    30.19F
TRAVERSE CITY  MOSUNNY   76  35  22 W14G28    30.22F
$$
MIZ007>008-015-232300-
EASTERN UPPER MICHIGAN

CITY           SKY/WX    TMP DP  RH WIND       PRES   REMARKS
KINROSS        MOSUNNY   70  37  30 SW8G17    30.17F
MACKINAC ISLAN SUNNY     61  33  34 SW17G28   30.18F
NEWBERRY       MOSUNNY   69  38  31 SW21G30   30.15F
S. S. MARIE    MOSUNNY   72  35  25 SW17G24   30.14F
$$
MIZ004>006-011>014-085-232300-
CENTRAL UPPER MICHIGAN

CITY           SKY/WX    TMP DP  RH WIND       PRES   REMARKS
MANISTIQUE     SUNNY     53  37  55 S9G18     30.18F
ESCANABA       SUNNY     66  43  42 S18G24    30.14F
MENOMINEE      MOSUNNY   75  39  27 S13G20    30.16F
SAWYER-GWINN   SUNNY     77  34  20 SW3       30.13F
$$
MIZ001>003-009>011-084-232300-
WESTERN UPPER MICHIGAN

CITY           SKY/WX    TMP DP  RH WIND       PRES   REMARKS
IRON MOUNTAIN  SUNNY     79  30  16 SW9       30.14F
HOUGHTON       SUNNY     75  36  24 W18       30.12F
COPPER HARBOR    N/A     79  35  20 NW10G21   30.07F
IRONWOOD       SUNNY     75  32  20 W13       30.11F
$$

ABBREVIATIONS USED IN REMARKS
   TC - TEMPERATURE IN CELSIUS
  WCI - WIND CHILL INDEX
   HX - HEAT INDEX
  VSB - VISIBILITY



USA.gov is the U.S. government's official web portal to all federal, state and local government web resources and services.